Weather History for Nome, AK

Change the Weather History Date:

Thursday, February 9, 2012

  Actual Average Record
Temperature  
Mean Temperature 25 °F -  
Max Temperature 32 °F 15 °F 40 °F (1947)
Min Temperature 18 °F -1 °F -42 °F (1949)
Degree Days  
Heating Degree Days 40 58  
Month to date heating degree days 529 530  
Since 1 July heating degree days 9325 8201  
Cooling Degree Days 0    
Month to date cooling degree days 0  
Year to date cooling degree days 0  
Moisture  
Dew Point 24 °F    
Average Humidity 0    
Maximum Humidity 0    
Minimum Humidity 0    
Precipitation  
Precipitation 0.05 in 0.03 in 0.46 in (1922)
Month to date precipitation 0.85 0.29  
Year to date precipitation 1.01 1.23  
Snow  
Snow 0.60 in 0.40 in 5.50 in (1922)
Month to date snowfall 14.6 3.7  
Since 1 July snowfall 62.2 48.2  
Snow Depth 29.00 in    
Sea Level Pressure  
Sea Level Pressure 29.29 in    
Wind  
Wind Speed 17 mph (East)    
Max Wind Speed 28 mph    
Max Gust Speed 32 mph    
Visibility 6 miles    
Events Fog , Snow    
T = Trace of Precipitation, MM = Missing Value Source: NWS Daily Summary

Daily Weather History Graph

Daily Weather History Graph

Search for Another Location

Airport:

Trip Planner

Search our weather history database for the weather conditions in past years. The results will help you decide how hot, cold, wet, or windy it might be!

Date:

Astronomy

Feb. 09, 2012 Rise Set
Actual Time 10:19 AM AKST 6:13 PM AKST
Civil Twilight 9:25 AM AKST 7:07 PM AKST
Nautical Twilight 8:27 AM AKST 8:05 PM AKST
Astronomical Twilight 7:31 AM AKST 9:01 PM AKST
Moon 10:22 PM AKST (2/9) 9:50 AM AKST (2/9)
Length of Visible Light 9h 42m
Length of Day
7h 53m
Waning Gibbous, 95% of the Moon is Illuminated
Feb 9
Waning Gibbous
Feb 14
Last Quarter
Feb 21
New
Feb 29
First Quarter
Mar 8
Full

Hourly Weather History & Observations

Time (AKST) Temp. Windchill Dew Point Humidity Pressure Visibility Wind Dir Wind Speed Gust Speed Precip Events Conditions
12:53 AM 24.1 °F 18.2 °F 12.0 °F 60% 29.26 in 10.0 mi NNE 4.6 mph - N/A   Clear
1:53 AM 21.9 °F 11.0 °F 14.0 °F 72% 29.25 in 10.0 mi NE 10.4 mph - N/A   Mostly Cloudy
2:53 AM 25.0 °F 15.5 °F 14.0 °F 63% 29.26 in 10.0 mi ENE 9.2 mph - N/A   Mostly Cloudy
3:53 AM 25.0 °F 15.5 °F 14.0 °F 63% 29.25 in 10.0 mi ENE 9.2 mph - N/A   Mostly Cloudy
4:53 AM 24.1 °F 14.4 °F 14.0 °F 65% 29.25 in 10.0 mi ENE 9.2 mph - N/A   Mostly Cloudy
5:53 AM 26.1 °F 13.6 °F 19.9 °F 78% 29.26 in 7.0 mi East 16.1 mph - 0.00 in Snow Light Snow
6:03 AM 24.8 °F 11.5 °F 21.2 °F 86% 29.26 in 1.8 mi East 17.3 mph 26.5 mph 0.00 in Snow Light Snow
6:20 AM 24.8 °F 11.1 °F 24.8 °F 100% 29.25 in 1.0 mi ENE 18.4 mph - 0.00 in Snow Light Snow
6:53 AM 27.0 °F 15.2 °F 26.1 °F 96% 29.25 in 1.0 mi ENE 15.0 mph 21.9 mph 0.02 in Snow Light Snow
7:29 AM 28.4 °F 16.2 °F 28.4 °F 100% 29.26 in 1.0 mi ENE 17.3 mph - 0.03 in Snow Light Snow
7:53 AM 30.0 °F 17.9 °F 27.0 °F 88% 29.26 in 1.0 mi East 18.4 mph 27.6 mph 0.03 in Snow Light Snow
8:00 AM 30.2 °F 17.8 °F 26.6 °F 86% 29.26 in 7.0 mi East 19.6 mph 28.8 mph 0.00 in Snow Light Snow
8:53 AM 28.0 °F 14.9 °F 26.1 °F 92% 29.27 in 8.0 mi East 19.6 mph - 0.00 in Snow Light Snow
9:53 AM 28.0 °F 14.3 °F 24.1 °F 85% 29.28 in 10.0 mi East 21.9 mph - 0.00 in   Mostly Cloudy
10:53 AM 28.0 °F 14.3 °F 24.1 °F 85% 29.28 in 7.0 mi East 21.9 mph - N/A   Mostly Cloudy
11:50 AM 28.4 °F 14.1 °F 24.8 °F 86% 29.29 in 4.0 mi East 24.2 mph 32.2 mph N/A   Overcast
11:53 AM 28.0 °F 13.9 °F 24.1 °F 85% 29.30 in 5.0 mi East 23.0 mph 29.9 mph N/A   Overcast
12:53 PM 28.9 °F 15.8 °F 26.1 °F 89% 29.31 in 3.0 mi ESE 20.7 mph 29.9 mph N/A   Overcast
1:09 PM 28.4 °F 14.7 °F 26.6 °F 93% 29.31 in 1.8 mi ESE 21.9 mph 31.1 mph N/A   Overcast
1:16 PM 28.4 °F 14.7 °F 26.6 °F 93% 29.31 in 0.5 mi East 21.9 mph 31.1 mph N/A Fog Light Freezing Fog
1:27 PM 28.4 °F 14.4 °F 26.6 °F 93% 29.31 in 1.0 mi East 23.0 mph 26.5 mph N/A   Overcast
1:36 PM 28.4 °F 14.7 °F 26.6 °F 93% 29.31 in 3.0 mi East 21.9 mph - N/A   Overcast
1:51 PM 28.4 °F 15.8 °F 24.8 °F 86% 29.32 in 7.0 mi East 18.4 mph - N/A   Overcast
1:53 PM 28.9 °F 16.9 °F 26.1 °F 89% 29.32 in 8.0 mi East 17.3 mph - N/A   Overcast
2:53 PM 28.9 °F 16.1 °F 25.0 °F 85% 29.32 in 10.0 mi East 19.6 mph - N/A   Mostly Cloudy
3:53 PM 30.0 °F 17.9 °F 25.0 °F 82% 29.32 in 10.0 mi East 18.4 mph - N/A   Overcast
4:53 PM 28.9 °F 15.8 °F 24.1 °F 82% 29.32 in 10.0 mi ENE 20.7 mph 28.8 mph N/A   Mostly Cloudy
5:53 PM 28.9 °F 14.8 °F 26.1 °F 89% 29.32 in 10.0 mi ENE 24.2 mph - N/A   Scattered Clouds
6:53 PM 28.9 °F 16.5 °F 26.1 °F 89% 29.32 in 10.0 mi East 18.4 mph - N/A   Mostly Cloudy
7:53 PM 28.9 °F 17.3 °F 26.1 °F 89% 29.33 in 10.0 mi East 16.1 mph - N/A   Mostly Cloudy
8:22 PM 30.2 °F 17.8 °F 26.6 °F 86% 29.32 in 3.0 mi East 19.6 mph - 0.00 in Snow Light Snow
8:53 PM 30.0 °F 17.5 °F 27.0 °F 88% 29.32 in 8.0 mi East 19.6 mph - 0.00 in   Overcast
9:53 PM 30.0 °F 18.3 °F 27.0 °F 88% 29.33 in 10.0 mi East 17.3 mph - N/A   Overcast
10:53 PM 30.9 °F 19.8 °F 28.0 °F 89% 29.34 in 10.0 mi East 16.1 mph - N/A   Overcast
11:53 PM 32.0 °F 22.1 °F 28.0 °F 85% 29.35 in 10.0 mi East 13.8 mph - N/A   Overcast